owner,sensor,date,latitude,longitude,vertical_datum,sea_water_practical_salinity,qcFlag 
FWRI,ioos:station:FWRI:NPD:1,2013-01-01T00:59:00Z,27.3338,-82.5794,0.0,34.13,1111122 
FWRI,ioos:station:FWRI:NPD:1,2013-01-01T01:59:00Z,27.3338,-82.5794,0.0,34.2,1111122 
FWRI,ioos:station:FWRI:NPD:1,2013-01-01T02:59:00Z,27.3338,-82.5794,0.0,34.2,1111122 
FWRI,ioos:station:FWRI:NPD:1,2013-01-01T07:59:00Z,27.3338,-82.5794,0.0,34.26,1111122 
FWRI,ioos:station:FWRI:NPD:1,2013-01-01T08:59:00Z,27.3338,-82.5794,0.0,34.24,1111122 
FWRI,ioos:station:FWRI:NPD:1,2013-01-01T09:59:00Z,27.3338,-82.5794,0.0,34.26,1111122 
FWRI,ioos:station:FWRI:NPD:1,2013-01-01T10:59:00Z,27.3338,-82.5794,0.0,34.3,1111122 
FWRI,ioos:station:FWRI:NPD:1,2013-01-01T11:59:00Z,27.3338,-82.5794,0.0,34.35,1111122 
FWRI,ioos:station:FWRI:NPD:1,2013-01-01T12:59:00Z,27.3338,-82.5794,0.0,34.29,1111122 
FWRI,ioos:station:FWRI:NPD:1,2013-01-01T13:59:00Z,27.3338,-82.5794,0.0,34.37,1111122 
FWRI,ioos:station:FWRI:NPD:1,2013-01-01T14:59:00Z,27.3338,-82.5794,0.0,34.33,1111122 
FWRI,ioos:station:FWRI:NPD:1,2013-01-01T15:59:00Z,27.3338,-82.5794,0.0,34.15,1111122 
FWRI,ioos:station:FWRI:NPD:1,2013-01-01T16:59:00Z,27.3338,-82.5794,0.0,34.1,1111122 
FWRI,ioos:station:FWRI:NPD:1,2013-01-01T17:59:00Z,27.3338,-82.5794,0.0,34.1,1111122 
FWRI,ioos:station:FWRI:NPD:1,2013-01-01T18:59:00Z,27.3338,-82.5794,0.0,34.09,1111122 
FWRI,ioos:station:FWRI:NPD:1,2013-01-01T19:59:00Z,27.3338,-82.5794,0.0,34.1,1111122 
FWRI,ioos:station:FWRI:NPD:1,2013-01-01T20:59:00Z,27.3338,-82.5794,0.0,34.11,1111122 
FWRI,ioos:station:FWRI:NPD:1,2013-01-01T23:59:00Z,27.3338,-82.5794,0.0,34.08,1111122 
FWRI,ioos:station:FWRI:NPD:1,2013-01-02T00:59:00Z,27.3338,-82.5794,0.0,34.08,1111122 
FWRI,ioos:station:FWRI:NPD:1,2013-01-02T01:59:00Z,27.3338,-82.5794,0.0,34.09,1111122 
FWRI,ioos:station:FWRI:NPD:1,2013-01-02T02:59:00Z,27.3338,-82.5794,0.0,34.12,1111122 
FWRI,ioos:station:FWRI:NPD:1,2013-01-02T03:59:00Z,27.3338,-82.5794,0.0,34.13,1111122 
FWRI,ioos:station:FWRI:NPD:1,2013-01-02T04:59:00Z,27.3338,-82.5794,0.0,34.14,1111122 
FWRI,ioos:station:FWRI:NPD:1,2013-01-02T05:59:00Z,27.3338,-82.5794,0.0,34.15,1111122 
FWRI,ioos:station:FWRI:NPD:1,2013-01-02T06:59:00Z,27.3338,-82.5794,0.0,34.15,1111122 
FWRI,ioos:station:FWRI:NPD:1,2013-01-02T07:59:00Z,27.3338,-82.5794,0.0,34.16,1111122 
FWRI,ioos:station:FWRI:NPD:1,2013-01-02T08:59:00Z,27.3338,-82.5794,0.0,34.16,1111122 
FWRI,ioos:station:FWRI:NPD:1,2013-01-02T09:59:00Z,27.3338,-82.5794,0.0,34.17,1111122 
FWRI,ioos:station:FWRI:NPD:1,2013-01-02T10:59:00Z,27.3338,-82.5794,0.0,34.17,1111122 
FWRI,ioos:station:FWRI:NPD:1,2013-01-02T11:59:00Z,27.3338,-82.5794,0.0,34.19,1111122 
FWRI,ioos:station:FWRI:NPD:1,2013-01-02T12:59:00Z,27.3338,-82.5794,0.0,34.21,1111122 
FWRI,ioos:station:FWRI:NPD:1,2013-01-02T13:59:00Z,27.3338,-82.5794,0.0,34.18,1111122 
FWRI,ioos:station:FWRI:NPD:1,2013-01-02T14:59:00Z,27.3338,-82.5794,0.0,34.16,1111122 
FWRI,ioos:station:FWRI:NPD:1,2013-01-02T15:59:00Z,27.3338,-82.5794,0.0,34.15,1111122 
FWRI,ioos:station:FWRI:NPD:1,2013-01-02T16:59:00Z,27.3338,-82.5794,0.0,34.13,1111122 
FWRI,ioos:station:FWRI:NPD:1,2013-01-02T17:59:00Z,27.3338,-82.5794,0.0,34.1,1111122 
FWRI,ioos:station:FWRI:NPD:1,2013-01-02T18:59:00Z,27.3338,-82.5794,0.0,34.13,1111122 
FWRI,ioos:station:FWRI:NPD:1,2013-01-02T19:59:00Z,27.3338,-82.5794,0.0,34.13,1111122 
FWRI,ioos:station:FWRI:NPD:1,2013-01-02T20:59:00Z,27.3338,-82.5794,0.0,34.14,1111122 
FWRI,ioos:station:FWRI:NPD:1,2013-01-02T22:59:00Z,27.3338,-82.5794,0.0,33.95,1111122 
FWRI,ioos:station:FWRI:NPD:1,2013-01-02T23:59:00Z,27.3338,-82.5794,0.0,34.11,1111122 
FWRI,ioos:station:FWRI:NPD:1,2013-01-03T00:59:00Z,27.3338,-82.5794,0.0,33.75,1111122 
FWRI,ioos:station:FWRI:NPD:1,2013-01-03T01:59:00Z,27.3338,-82.5794,0.0,34.01,1111122 
FWRI,ioos:station:FWRI:NPD:1,2013-01-03T02:59:00Z,27.3338,-82.5794,0.0,34.23,1111122 
FWRI,ioos:station:FWRI:NPD:1,2013-01-03T03:59:00Z,27.3338,-82.5794,0.0,34.39,1111122 
FWRI,ioos:station:FWRI:NPD:1,2013-01-03T04:59:00Z,27.3338,-82.5794,0.0,33.97,1111122 
FWRI,ioos:station:FWRI:NPD:1,2013-01-03T05:59:00Z,27.3338,-82.5794,0.0,34.31,1111122 
FWRI,ioos:station:FWRI:NPD:1,2013-01-03T06:59:00Z,27.3338,-82.5794,0.0,34.18,1111122 
FWRI,ioos:station:FWRI:NPD:1,2013-01-03T07:59:00Z,27.3338,-82.5794,0.0,34.35,1111122 
FWRI,ioos:station:FWRI:NPD:1,2013-01-03T08:59:00Z,27.3338,-82.5794,0.0,34.48,1111122 
FWRI,ioos:station:FWRI:NPD:1,2013-01-03T09:59:00Z,27.3338,-82.5794,0.0,34.38,1111122 
FWRI,ioos:station:FWRI:NPD:1,2013-01-03T10:59:00Z,27.3338,-82.5794,0.0,34.52,1111122 
FWRI,ioos:station:FWRI:NPD:1,2013-01-03T11:59:00Z,27.3338,-82.5794,0.0,34.29,1111122 
FWRI,ioos:station:FWRI:NPD:1,2013-01-03T12:59:00Z,27.3338,-82.5794,0.0,34.18,1111122 
FWRI,ioos:station:FWRI:NPD:1,2013-01-03T13:59:00Z,27.3338,-82.5794,0.0,34.29,1111122 
FWRI,ioos:station:FWRI:NPD:1,2013-01-03T14:59:00Z,27.3338,-82.5794,0.0,34.46,1111122 
FWRI,ioos:station:FWRI:NPD:1,2013-01-03T15:59:00Z,27.3338,-82.5794,0.0,34.32,1111122 
FWRI,ioos:station:FWRI:NPD:1,2013-01-03T16:59:00Z,27.3338,-82.5794,0.0,34.26,1111122 
FWRI,ioos:station:FWRI:NPD:1,2013-01-03T17:59:00Z,27.3338,-82.5794,0.0,34.2,1111122 
FWRI,ioos:station:FWRI:NPD:1,2013-01-03T18:59:00Z,27.3338,-82.5794,0.0,34.03,1111122 
FWRI,ioos:station:FWRI:NPD:1,2013-01-03T19:59:00Z,27.3338,-82.5794,0.0,34.38,1111122 
FWRI,ioos:station:FWRI:NPD:1,2013-01-03T20:59:00Z,27.3338,-82.5794,0.0,34.2,1111122 
FWRI,ioos:station:FWRI:NPD:1,2013-01-03T21:59:00Z,27.3338,-82.5794,0.0,34.39,1111122 
FWRI,ioos:station:FWRI:NPD:1,2013-01-03T22:59:00Z,27.3338,-82.5794,0.0,34.2,1111122 
FWRI,ioos:station:FWRI:NPD:1,2013-01-03T23:59:00Z,27.3338,-82.5794,0.0,34.22,1111122 
FWRI,ioos:station:FWRI:NPD:1,2013-01-04T00:59:00Z,27.3338,-82.5794,0.0,34.19,1111122 
FWRI,ioos:station:FWRI:NPD:1,2013-01-04T01:59:00Z,27.3338,-82.5794,0.0,34.18,1111122 
FWRI,ioos:station:FWRI:NPD:1,2013-01-04T02:59:00Z,27.3338,-82.5794,0.0,34.19,1111122 
FWRI,ioos:station:FWRI:NPD:1,2013-01-04T03:59:00Z,27.3338,-82.5794,0.0,34.09,1111122 
FWRI,ioos:station:FWRI:NPD:1,2013-01-04T04:59:00Z,27.3338,-82.5794,0.0,34.32,1111122 
FWRI,ioos:station:FWRI:NPD:1,2013-01-04T05:59:00Z,27.3338,-82.5794,0.0,34.23,1111122 
FWRI,ioos:station:FWRI:NPD:1,2013-01-04T06:59:00Z,27.3338,-82.5794,0.0,34.4,1111122 
FWRI,ioos:station:FWRI:NPD:1,2013-01-04T07:59:00Z,27.3338,-82.5794,0.0,34.37,1111122 
FWRI,ioos:station:FWRI:NPD:1,2013-01-04T08:59:00Z,27.3338,-82.5794,0.0,34.41,1111122 
FWRI,ioos:station:FWRI:NPD:1,2013-01-04T09:59:00Z,27.3338,-82.5794,0.0,34.57,1111122 
FWRI,ioos:station:FWRI:NPD:1,2013-01-04T10:59:00Z,27.3338,-82.5794,0.0,34.46,1111122 
FWRI,ioos:station:FWRI:NPD:1,2013-01-04T11:59:00Z,27.3338,-82.5794,0.0,34.5,1111122 
FWRI,ioos:station:FWRI:NPD:1,2013-01-04T12:59:00Z,27.3338,-82.5794,0.0,34.57,1111122 
FWRI,ioos:station:FWRI:NPD:1,2013-01-04T13:59:00Z,27.3338,-82.5794,0.0,34.57,1111122 
FWRI,ioos:station:FWRI:NPD:1,2013-01-04T14:59:00Z,27.3338,-82.5794,0.0,34.61,1111122 
FWRI,ioos:station:FWRI:NPD:1,2013-01-04T15:59:00Z,27.3338,-82.5794,0.0,34.54,1111122 
FWRI,ioos:station:FWRI:NPD:1,2013-01-04T16:59:00Z,27.3338,-82.5794,0.0,34.54,1111122 
FWRI,ioos:station:FWRI:NPD:1,2013-01-04T17:59:00Z,27.3338,-82.5794,0.0,34.45,1111122 
FWRI,ioos:station:FWRI:NPD:1,2013-01-04T18:59:00Z,27.3338,-82.5794,0.0,34.44,1111122 
FWRI,ioos:station:FWRI:NPD:1,2013-01-04T19:59:00Z,27.3338,-82.5794,0.0,34.46,1111122 
FWRI,ioos:station:FWRI:NPD:1,2013-01-04T20:59:00Z,27.3338,-82.5794,0.0,34.44,1111122 
FWRI,ioos:station:FWRI:NPD:1,2013-01-04T21:59:00Z,27.3338,-82.5794,0.0,34.43,1111122 
FWRI,ioos:station:FWRI:NPD:1,2013-01-04T22:59:00Z,27.3338,-82.5794,0.0,34.43,1111122 
FWRI,ioos:station:FWRI:NPD:1,2013-01-04T23:59:00Z,27.3338,-82.5794,0.0,34.42,1111122 
FWRI,ioos:station:FWRI:NPD:1,2013-01-05T00:59:00Z,27.3338,-82.5794,0.0,34.41,1111122 
FWRI,ioos:station:FWRI:NPD:1,2013-01-05T01:59:00Z,27.3338,-82.5794,0.0,34.42,1111122 
FWRI,ioos:station:FWRI:NPD:1,2013-01-05T02:59:00Z,27.3338,-82.5794,0.0,34.73,1111122 
FWRI,ioos:station:FWRI:NPD:1,2013-01-05T03:59:00Z,27.3338,-82.5794,0.0,34.69,1111122 
FWRI,ioos:station:FWRI:NPD:1,2013-01-05T04:59:00Z,27.3338,-82.5794,0.0,34.64,1111122 
FWRI,ioos:station:FWRI:NPD:1,2013-01-05T05:59:00Z,27.3338,-82.5794,0.0,34.6,1111122 
FWRI,ioos:station:FWRI:NPD:1,2013-01-05T06:59:00Z,27.3338,-82.5794,0.0,34.63,1111122 
FWRI,ioos:station:FWRI:NPD:1,2013-01-05T07:59:00Z,27.3338,-82.5794,0.0,34.62,1111122 
FWRI,ioos:station:FWRI:NPD:1,2013-01-05T08:59:00Z,27.3338,-82.5794,0.0,34.62,1111122 
FWRI,ioos:station:FWRI:NPD:1,2013-01-05T09:59:00Z,27.3338,-82.5794,0.0,34.61,1111122 
FWRI,ioos:station:FWRI:NPD:1,2013-01-05T10:59:00Z,27.3338,-82.5794,0.0,34.63,1111122 
FWRI,ioos:station:FWRI:NPD:1,2013-01-05T11:59:00Z,27.3338,-82.5794,0.0,34.62,1111122 
FWRI,ioos:station:FWRI:NPD:1,2013-01-05T12:59:00Z,27.3338,-82.5794,0.0,34.7,1111122 
FWRI,ioos:station:FWRI:NPD:1,2013-01-05T13:59:00Z,27.3338,-82.5794,0.0,34.71,1111122 
FWRI,ioos:station:FWRI:NPD:1,2013-01-05T14:59:00Z,27.3338,-82.5794,0.0,34.7,1111122 
FWRI,ioos:station:FWRI:NPD:1,2013-01-05T15:59:00Z,27.3338,-82.5794,0.0,34.65,1111122 
FWRI,ioos:station:FWRI:NPD:1,2013-01-05T16:59:00Z,27.3338,-82.5794,0.0,34.62,1111122 
FWRI,ioos:station:FWRI:NPD:1,2013-01-05T17:59:00Z,27.3338,-82.5794,0.0,34.41,1111122 
FWRI,ioos:station:FWRI:NPD:1,2013-01-05T18:59:00Z,27.3338,-82.5794,0.0,34.51,1111122 
FWRI,ioos:station:FWRI:NPD:1,2013-01-05T19:59:00Z,27.3338,-82.5794,0.0,34.56,1111122 
FWRI,ioos:station:FWRI:NPD:1,2013-01-05T20:59:00Z,27.3338,-82.5794,0.0,34.56,1111122 
FWRI,ioos:station:FWRI:NPD:1,2013-01-05T21:59:00Z,27.3338,-82.5794,0.0,34.57,1111122 
FWRI,ioos:station:FWRI:NPD:1,2013-01-05T22:59:00Z,27.3338,-82.5794,0.0,34.66,1111122 
FWRI,ioos:station:FWRI:NPD:1,2013-01-05T23:59:00Z,27.3338,-82.5794,0.0,34.67,1111122 
FWRI,ioos:station:FWRI:NPD:1,2013-01-06T00:59:00Z,27.3338,-82.5794,0.0,34.65,1111122 
FWRI,ioos:station:FWRI:NPD:1,2013-01-06T01:59:00Z,27.3338,-82.5794,0.0,34.7,1111122 
FWRI,ioos:station:FWRI:NPD:1,2013-01-06T02:59:00Z,27.3338,-82.5794,0.0,34.66,1111122 
FWRI,ioos:station:FWRI:NPD:1,2013-01-06T03:59:00Z,27.3338,-82.5794,0.0,34.65,1111122 
FWRI,ioos:station:FWRI:NPD:1,2013-01-06T04:59:00Z,27.3338,-82.5794,0.0,34.63,1111122 
FWRI,ioos:station:FWRI:NPD:1,2013-01-06T05:59:00Z,27.3338,-82.5794,0.0,34.6,1111122 
FWRI,ioos:station:FWRI:NPD:1,2013-01-06T06:59:00Z,27.3338,-82.5794,0.0,34.57,1111122 
FWRI,ioos:station:FWRI:NPD:1,2013-01-06T07:59:00Z,27.3338,-82.5794,0.0,34.57,1111122 
FWRI,ioos:station:FWRI:NPD:1,2013-01-06T08:59:00Z,27.3338,-82.5794,0.0,34.54,1111122 
FWRI,ioos:station:FWRI:NPD:1,2013-01-06T09:59:00Z,27.3338,-82.5794,0.0,34.53,1111122 
FWRI,ioos:station:FWRI:NPD:1,2013-01-06T10:59:00Z,27.3338,-82.5794,0.0,34.54,1111122 
FWRI,ioos:station:FWRI:NPD:1,2013-01-06T11:59:00Z,27.3338,-82.5794,0.0,34.63,1111122 
FWRI,ioos:station:FWRI:NPD:1,2013-01-06T12:59:00Z,27.3338,-82.5794,0.0,34.63,1111122 
FWRI,ioos:station:FWRI:NPD:1,2013-01-06T13:59:00Z,27.3338,-82.5794,0.0,34.66,1111122 
FWRI,ioos:station:FWRI:NPD:1,2013-01-06T14:59:00Z,27.3338,-82.5794,0.0,34.69,1111122 
FWRI,ioos:station:FWRI:NPD:1,2013-01-06T15:59:00Z,27.3338,-82.5794,0.0,34.6,1111122 
FWRI,ioos:station:FWRI:NPD:1,2013-01-06T16:59:00Z,27.3338,-82.5794,0.0,34.59,1111122 
FWRI,ioos:station:FWRI:NPD:1,2013-01-06T17:59:00Z,27.3338,-82.5794,0.0,34.65,1111122 
FWRI,ioos:station:FWRI:NPD:1,2013-01-06T18:59:00Z,27.3338,-82.5794,0.0,34.66,1111122 
FWRI,ioos:station:FWRI:NPD:1,2013-01-06T19:59:00Z,27.3338,-82.5794,0.0,34.65,1111122 
FWRI,ioos:station:FWRI:NPD:1,2013-01-06T20:59:00Z,27.3338,-82.5794,0.0,34.66,1111122 
FWRI,ioos:station:FWRI:NPD:1,2013-01-06T21:59:00Z,27.3338,-82.5794,0.0,34.69,1111122 
FWRI,ioos:station:FWRI:NPD:1,2013-01-06T22:59:00Z,27.3338,-82.5794,0.0,34.69,1111122 
FWRI,ioos:station:FWRI:NPD:1,2013-01-06T23:59:00Z,27.3338,-82.5794,0.0,34.71,1111122 
FWRI,ioos:station:FWRI:NPD:1,2013-01-07T00:59:00Z,27.3338,-82.5794,0.0,34.71,1111122 
FWRI,ioos:station:FWRI:NPD:1,2013-01-07T01:59:00Z,27.3338,-82.5794,0.0,34.7,1111122 
FWRI,ioos:station:FWRI:NPD:1,2013-01-07T02:59:00Z,27.3338,-82.5794,0.0,34.7,1111122 
FWRI,ioos:station:FWRI:NPD:1,2013-01-07T03:59:00Z,27.3338,-82.5794,0.0,34.69,1111122 
FWRI,ioos:station:FWRI:NPD:1,2013-01-07T04:59:00Z,27.3338,-82.5794,0.0,34.67,1111122 
FWRI,ioos:station:FWRI:NPD:1,2013-01-07T05:59:00Z,27.3338,-82.5794,0.0,34.65,1111122 
FWRI,ioos:station:FWRI:NPD:1,2013-01-07T06:59:00Z,27.3338,-82.5794,0.0,34.58,1111122 
FWRI,ioos:station:FWRI:NPD:1,2013-01-07T07:59:00Z,27.3338,-82.5794,0.0,34.56,1111122 
FWRI,ioos:station:FWRI:NPD:1,2013-01-07T08:59:00Z,27.3338,-82.5794,0.0,34.52,1111122 
FWRI,ioos:station:FWRI:NPD:1,2013-01-07T09:59:00Z,27.3338,-82.5794,0.0,34.55,1111122 
FWRI,ioos:station:FWRI:NPD:1,2013-01-07T10:59:00Z,27.3338,-82.5794,0.0,34.53,1111122 
FWRI,ioos:station:FWRI:NPD:1,2013-01-07T11:59:00Z,27.3338,-82.5794,0.0,34.53,1111122 
FWRI,ioos:station:FWRI:NPD:1,2013-01-07T12:59:00Z,27.3338,-82.5794,0.0,34.63,1111122 
FWRI,ioos:station:FWRI:NPD:1,2013-01-07T13:59:00Z,27.3338,-82.5794,0.0,34.68,1111122 
FWRI,ioos:station:FWRI:NPD:1,2013-01-07T14:59:00Z,27.3338,-82.5794,0.0,34.68,1111122 
FWRI,ioos:station:FWRI:NPD:1,2013-01-07T15:59:00Z,27.3338,-82.5794,0.0,34.68,1111122 
FWRI,ioos:station:FWRI:NPD:1,2013-01-07T16:59:00Z,27.3338,-82.5794,0.0,34.7,1111122 
FWRI,ioos:station:FWRI:NPD:1,2013-01-07T17:59:00Z,27.3338,-82.5794,0.0,34.7,1111122 
FWRI,ioos:station:FWRI:NPD:1,2013-01-07T18:59:00Z,27.3338,-82.5794,0.0,34.69,1111122 
FWRI,ioos:station:FWRI:NPD:1,2013-01-07T19:59:00Z,27.3338,-82.5794,0.0,34.68,1111122 
FWRI,ioos:station:FWRI:NPD:1,2013-01-07T20:59:00Z,27.3338,-82.5794,0.0,34.59,1111122 
FWRI,ioos:station:FWRI:NPD:1,2013-01-07T21:59:00Z,27.3338,-82.5794,0.0,34.68,1111122 
FWRI,ioos:station:FWRI:NPD:1,2013-01-07T22:59:00Z,27.3338,-82.5794,0.0,34.79,1111122 
FWRI,ioos:station:FWRI:NPD:1,2013-01-07T23:59:00Z,27.3338,-82.5794,0.0,34.8,1111122 
FWRI,ioos:station:FWRI:NPD:1,2013-01-08T00:59:00Z,27.3338,-82.5794,0.0,34.79,1111122 
FWRI,ioos:station:FWRI:NPD:1,2013-01-08T01:59:00Z,27.3338,-82.5794,0.0,34.81,1111122 
FWRI,ioos:station:FWRI:NPD:1,2013-01-08T02:59:00Z,27.3338,-82.5794,0.0,34.78,1111122 
FWRI,ioos:station:FWRI:NPD:1,2013-01-08T03:59:00Z,27.3338,-82.5794,0.0,34.75,1111122 
FWRI,ioos:station:FWRI:NPD:1,2013-01-08T04:59:00Z,27.3338,-82.5794,0.0,34.68,1111122 
FWRI,ioos:station:FWRI:NPD:1,2013-01-08T05:59:00Z,27.3338,-82.5794,0.0,34.6,1111122 
FWRI,ioos:station:FWRI:NPD:1,2013-01-08T06:59:00Z,27.3338,-82.5794,0.0,34.59,1111122 
FWRI,ioos:station:FWRI:NPD:1,2013-01-08T07:59:00Z,27.3338,-82.5794,0.0,34.54,1111122 
FWRI,ioos:station:FWRI:NPD:1,2013-01-08T08:59:00Z,27.3338,-82.5794,0.0,34.55,1111122 
FWRI,ioos:station:FWRI:NPD:1,2013-01-08T09:59:00Z,27.3338,-82.5794,0.0,34.51,1111122 
FWRI,ioos:station:FWRI:NPD:1,2013-01-08T10:59:00Z,27.3338,-82.5794,0.0,34.52,1111122 
FWRI,ioos:station:FWRI:NPD:1,2013-01-08T11:59:00Z,27.3338,-82.5794,0.0,34.53,1111122 
FWRI,ioos:station:FWRI:NPD:1,2013-01-08T12:59:00Z,27.3338,-82.5794,0.0,34.55,1111122 
FWRI,ioos:station:FWRI:NPD:1,2013-01-08T13:59:00Z,27.3338,-82.5794,0.0,34.65,1111122 
FWRI,ioos:station:FWRI:NPD:1,2013-01-08T14:59:00Z,27.3338,-82.5794,0.0,34.74,1111122 
FWRI,ioos:station:FWRI:NPD:1,2013-01-08T15:59:00Z,27.3338,-82.5794,0.0,34.69,1111122 
FWRI,ioos:station:FWRI:NPD:1,2013-01-08T16:59:00Z,27.3338,-82.5794,0.0,34.74,1111122 
FWRI,ioos:station:FWRI:NPD:1,2013-01-08T18:59:00Z,27.3338,-82.5794,0.0,34.78,1111122 
FWRI,ioos:station:FWRI:NPD:1,2013-01-08T19:59:00Z,27.3338,-82.5794,0.0,34.8,1111122 
FWRI,ioos:station:FWRI:NPD:1,2013-01-08T22:59:00Z,27.3338,-82.5794,0.0,34.78,1111122 
FWRI,ioos:station:FWRI:NPD:1,2013-01-08T23:59:00Z,27.3338,-82.5794,0.0,34.85,1111122 
FWRI,ioos:station:FWRI:NPD:1,2013-01-09T00:59:00Z,27.3338,-82.5794,0.0,34.86,1111122 
FWRI,ioos:station:FWRI:NPD:1,2013-01-09T01:59:00Z,27.3338,-82.5794,0.0,34.83,1111122 
FWRI,ioos:station:FWRI:NPD:1,2013-01-09T02:59:00Z,27.3338,-82.5794,0.0,34.87,1111122 
FWRI,ioos:station:FWRI:NPD:1,2013-01-09T03:59:00Z,27.3338,-82.5794,0.0,34.82,1111122 
FWRI,ioos:station:FWRI:NPD:1,2013-01-09T04:59:00Z,27.3338,-82.5794,0.0,34.82,1111122 
FWRI,ioos:station:FWRI:NPD:1,2013-01-09T05:59:00Z,27.3338,-82.5794,0.0,34.82,1111122 
FWRI,ioos:station:FWRI:NPD:1,2013-01-09T06:59:00Z,27.3338,-82.5794,0.0,34.81,1111122 
FWRI,ioos:station:FWRI:NPD:1,2013-01-09T07:59:00Z,27.3338,-82.5794,0.0,34.78,1111122 
FWRI,ioos:station:FWRI:NPD:1,2013-01-09T08:59:00Z,27.3338,-82.5794,0.0,34.7,1111122 
FWRI,ioos:station:FWRI:NPD:1,2013-01-09T09:59:00Z,27.3338,-82.5794,0.0,34.68,1111122 
FWRI,ioos:station:FWRI:NPD:1,2013-01-09T10:59:00Z,27.3338,-82.5794,0.0,34.67,1111122 
FWRI,ioos:station:FWRI:NPD:1,2013-01-09T11:59:00Z,27.3338,-82.5794,0.0,34.66,1111122 
FWRI,ioos:station:FWRI:NPD:1,2013-01-09T12:59:00Z,27.3338,-82.5794,0.0,34.66,1111122 
FWRI,ioos:station:FWRI:NPD:1,2013-01-09T13:59:00Z,27.3338,-82.5794,0.0,34.6,1111122 
FWRI,ioos:station:FWRI:NPD:1,2013-01-09T14:59:00Z,27.3338,-82.5794,0.0,34.77,1111122 
FWRI,ioos:station:FWRI:NPD:1,2013-01-09T15:59:00Z,27.3338,-82.5794,0.0,34.76,1111122 
FWRI,ioos:station:FWRI:NPD:1,2013-01-09T16:59:00Z,27.3338,-82.5794,0.0,34.83,1111122 
FWRI,ioos:station:FWRI:NPD:1,2013-01-09T17:59:00Z,27.3338,-82.5794,0.0,34.81,1111122 
FWRI,ioos:station:FWRI:NPD:1,2013-01-09T18:59:00Z,27.3338,-82.5794,0.0,34.83,1111122 
FWRI,ioos:station:FWRI:NPD:1,2013-01-09T19:59:00Z,27.3338,-82.5794,0.0,34.81,1111122 
FWRI,ioos:station:FWRI:NPD:1,2013-01-09T20:59:00Z,27.3338,-82.5794,0.0,34.83,1111122 
FWRI,ioos:station:FWRI:NPD:1,2013-01-09T21:59:00Z,27.3338,-82.5794,0.0,34.83,1111122 
FWRI,ioos:station:FWRI:NPD:1,2013-01-09T22:59:00Z,27.3338,-82.5794,0.0,34.84,1111122 
FWRI,ioos:station:FWRI:NPD:1,2013-01-09T23:59:00Z,27.3338,-82.5794,0.0,34.85,1111122 
FWRI,ioos:station:FWRI:NPD:1,2013-01-10T00:59:00Z,27.3338,-82.5794,0.0,34.88,1111122 
FWRI,ioos:station:FWRI:NPD:1,2013-01-10T01:59:00Z,27.3338,-82.5794,0.0,34.86,1111122 
FWRI,ioos:station:FWRI:NPD:1,2013-01-10T02:59:00Z,27.3338,-82.5794,0.0,34.8,1111122 
FWRI,ioos:station:FWRI:NPD:1,2013-01-10T03:59:00Z,27.3338,-82.5794,0.0,34.83,1111122 
FWRI,ioos:station:FWRI:NPD:1,2013-01-10T04:59:00Z,27.3338,-82.5794,0.0,34.82,1111122 
FWRI,ioos:station:FWRI:NPD:1,2013-01-10T05:59:00Z,27.3338,-82.5794,0.0,34.82,1111122 
FWRI,ioos:station:FWRI:NPD:1,2013-01-10T06:59:00Z,27.3338,-82.5794,0.0,34.84,1111122 
FWRI,ioos:station:FWRI:NPD:1,2013-01-10T07:59:00Z,27.3338,-82.5794,0.0,34.83,1111122 
FWRI,ioos:station:FWRI:NPD:1,2013-01-10T08:59:00Z,27.3338,-82.5794,0.0,34.82,1111122 
FWRI,ioos:station:FWRI:NPD:1,2013-01-10T09:59:00Z,27.3338,-82.5794,0.0,34.76,1111122 
FWRI,ioos:station:FWRI:NPD:1,2013-01-10T10:59:00Z,27.3338,-82.5794,0.0,34.73,1111122 
FWRI,ioos:station:FWRI:NPD:1,2013-01-10T11:59:00Z,27.3338,-82.5794,0.0,34.7,1111122 
FWRI,ioos:station:FWRI:NPD:1,2013-01-10T12:59:00Z,27.3338,-82.5794,0.0,34.71,1111122 
FWRI,ioos:station:FWRI:NPD:1,2013-01-10T13:59:00Z,27.3338,-82.5794,0.0,34.67,1111122 
FWRI,ioos:station:FWRI:NPD:1,2013-01-10T14:59:00Z,27.3338,-82.5794,0.0,34.6,1111122 
FWRI,ioos:station:FWRI:NPD:1,2013-01-10T15:59:00Z,27.3338,-82.5794,0.0,34.75,1111122 
FWRI,ioos:station:FWRI:NPD:1,2013-01-10T16:59:00Z,27.3338,-82.5794,0.0,34.78,1111122 
FWRI,ioos:station:FWRI:NPD:1,2013-01-10T17:59:00Z,27.3338,-82.5794,0.0,34.81,1111122 
FWRI,ioos:station:FWRI:NPD:1,2013-01-10T18:59:00Z,27.3338,-82.5794,0.0,34.8,1111122 
FWRI,ioos:station:FWRI:NPD:1,2013-01-10T19:59:00Z,27.3338,-82.5794,0.0,34.8,1111122 
FWRI,ioos:station:FWRI:NPD:1,2013-01-10T20:59:00Z,27.3338,-82.5794,0.0,34.83,1111122 
FWRI,ioos:station:FWRI:NPD:1,2013-01-10T21:59:00Z,27.3338,-82.5794,0.0,34.84,1111122 
FWRI,ioos:station:FWRI:NPD:1,2013-01-10T22:59:00Z,27.3338,-82.5794,0.0,34.82,1111122 
FWRI,ioos:station:FWRI:NPD:1,2013-01-10T23:59:00Z,27.3338,-82.5794,0.0,34.8,1111122 
FWRI,ioos:station:FWRI:NPD:1,2013-01-11T00:59:00Z,27.3338,-82.5794,0.0,34.83,1111122 
FWRI,ioos:station:FWRI:NPD:1,2013-01-11T01:59:00Z,27.3338,-82.5794,0.0,34.85,1111122 
FWRI,ioos:station:FWRI:NPD:1,2013-01-11T02:59:00Z,27.3338,-82.5794,0.0,34.78,1111122 
FWRI,ioos:station:FWRI:NPD:1,2013-01-11T03:59:00Z,27.3338,-82.5794,0.0,34.72,1111122 
FWRI,ioos:station:FWRI:NPD:1,2013-01-11T04:59:00Z,27.3338,-82.5794,0.0,34.83,1111122 
FWRI,ioos:station:FWRI:NPD:1,2013-01-11T05:59:00Z,27.3338,-82.5794,0.0,34.84,1111122 
FWRI,ioos:station:FWRI:NPD:1,2013-01-11T06:59:00Z,27.3338,-82.5794,0.0,34.92,1111122 
FWRI,ioos:station:FWRI:NPD:1,2013-01-11T07:59:00Z,27.3338,-82.5794,0.0,34.87,1111122 
FWRI,ioos:station:FWRI:NPD:1,2013-01-11T08:59:00Z,27.3338,-82.5794,0.0,34.86,1111122 
FWRI,ioos:station:FWRI:NPD:1,2013-01-11T09:59:00Z,27.3338,-82.5794,0.0,34.86,1111122 
FWRI,ioos:station:FWRI:NPD:1,2013-01-11T10:59:00Z,27.3338,-82.5794,0.0,34.84,1111122 
FWRI,ioos:station:FWRI:NPD:1,2013-01-11T11:59:00Z,27.3338,-82.5794,0.0,34.84,1111122 
FWRI,ioos:station:FWRI:NPD:1,2013-01-11T12:59:00Z,27.3338,-82.5794,0.0,34.83,1111122 
FWRI,ioos:station:FWRI:NPD:1,2013-01-11T13:59:00Z,27.3338,-82.5794,0.0,34.8,1111122 
FWRI,ioos:station:FWRI:NPD:1,2013-01-11T14:59:00Z,27.3338,-82.5794,0.0,34.78,1111122 
FWRI,ioos:station:FWRI:NPD:1,2013-01-11T15:59:00Z,27.3338,-82.5794,0.0,34.74,1111122 
FWRI,ioos:station:FWRI:NPD:1,2013-01-11T16:59:00Z,27.3338,-82.5794,0.0,34.76,1111122 
FWRI,ioos:station:FWRI:NPD:1,2013-01-11T17:59:00Z,27.3338,-82.5794,0.0,34.83,1111122 
FWRI,ioos:station:FWRI:NPD:1,2013-01-11T18:59:00Z,27.3338,-82.5794,0.0,34.84,1111122 
FWRI,ioos:station:FWRI:NPD:1,2013-01-11T19:59:00Z,27.3338,-82.5794,0.0,34.87,1111122 
FWRI,ioos:station:FWRI:NPD:1,2013-01-11T20:59:00Z,27.3338,-82.5794,0.0,34.86,1111122 
FWRI,ioos:station:FWRI:NPD:1,2013-01-11T21:59:00Z,27.3338,-82.5794,0.0,34.88,1111122 
FWRI,ioos:station:FWRI:NPD:1,2013-01-11T22:59:00Z,27.3338,-82.5794,0.0,34.87,1111122 
FWRI,ioos:station:FWRI:NPD:1,2013-01-11T23:59:00Z,27.3338,-82.5794,0.0,34.8,1111122 
FWRI,ioos:station:FWRI:NPD:1,2013-01-12T00:59:00Z,27.3338,-82.5794,0.0,34.87,1111122 
FWRI,ioos:station:FWRI:NPD:1,2013-01-12T01:59:00Z,27.3338,-82.5794,0.0,34.88,1111122 
FWRI,ioos:station:FWRI:NPD:1,2013-01-12T02:59:00Z,27.3338,-82.5794,0.0,34.89,1111122 
FWRI,ioos:station:FWRI:NPD:1,2013-01-12T03:59:00Z,27.3338,-82.5794,0.0,34.88,1111122 
FWRI,ioos:station:FWRI:NPD:1,2013-01-12T04:59:00Z,27.3338,-82.5794,0.0,34.84,1111122 
FWRI,ioos:station:FWRI:NPD:1,2013-01-12T05:59:00Z,27.3338,-82.5794,0.0,34.87,1111122 
FWRI,ioos:station:FWRI:NPD:1,2013-01-12T06:59:00Z,27.3338,-82.5794,0.0,34.79,1111122 
FWRI,ioos:station:FWRI:NPD:1,2013-01-12T07:59:00Z,27.3338,-82.5794,0.0,34.84,1111122 
FWRI,ioos:station:FWRI:NPD:1,2013-01-12T08:59:00Z,27.3338,-82.5794,0.0,34.73,1111122 
FWRI,ioos:station:FWRI:NPD:1,2013-01-12T09:59:00Z,27.3338,-82.5794,0.0,34.83,1111122 
FWRI,ioos:station:FWRI:NPD:1,2013-01-12T10:59:00Z,27.3338,-82.5794,0.0,34.85,1111122 
FWRI,ioos:station:FWRI:NPD:1,2013-01-12T11:59:00Z,27.3338,-82.5794,0.0,34.8,1111122 
FWRI,ioos:station:FWRI:NPD:1,2013-01-12T12:59:00Z,27.3338,-82.5794,0.0,34.77,1111122 
FWRI,ioos:station:FWRI:NPD:1,2013-01-12T13:59:00Z,27.3338,-82.5794,0.0,34.78,1111122 
FWRI,ioos:station:FWRI:NPD:1,2013-01-12T14:59:00Z,27.3338,-82.5794,0.0,34.81,1111122 
FWRI,ioos:station:FWRI:NPD:1,2013-01-12T15:59:00Z,27.3338,-82.5794,0.0,34.58,1111122 
FWRI,ioos:station:FWRI:NPD:1,2013-01-12T16:59:00Z,27.3338,-82.5794,0.0,34.72,1111122 
FWRI,ioos:station:FWRI:NPD:1,2013-01-12T17:59:00Z,27.3338,-82.5794,0.0,34.81,1111122 
FWRI,ioos:station:FWRI:NPD:1,2013-01-12T18:59:00Z,27.3338,-82.5794,0.0,34.85,1111122 
FWRI,ioos:station:FWRI:NPD:1,2013-01-12T19:59:00Z,27.3338,-82.5794,0.0,34.84,1111122 
FWRI,ioos:station:FWRI:NPD:1,2013-01-12T20:59:00Z,27.3338,-82.5794,0.0,34.84,1111122 
FWRI,ioos:station:FWRI:NPD:1,2013-01-12T21:59:00Z,27.3338,-82.5794,0.0,34.84,1111122 
FWRI,ioos:station:FWRI:NPD:1,2013-01-12T22:59:00Z,27.3338,-82.5794,0.0,34.86,1111122 
FWRI,ioos:station:FWRI:NPD:1,2013-01-12T23:59:00Z,27.3338,-82.5794,0.0,34.82,1111122 